Regional Weather Roundup
Issued by NWS

Home | Current Version | Previous Version | Graphics & Text | Print | Product List | Glossary On
Versions: 1 2 3 4 5 6 7 8 9 10 11 12 13 14 15 16 17 18 19 20 21 22 23 24 25 26 27 28 29 30 31 32 33 34 35 36 37 38 39 40 41 42 43 44 45 46 47 48 49 50
000
ASUS45 KCYS 291410
RWRWY

WYOMING REGIONAL WEATHER ROUNDUP
NATIONAL WEATHER SERVICE CHEYENNE WY
800 AM MDT FRI AUG 29 2014

NOTE:  "FAIR" INDICATES FEW OR NO CLOUDS BELOW 12,000 FEET
WITH NO SIGNIFICANT WEATHER AND/OR OBSTRUCTIONS TO VISIBILITY.

WYZ001-291500-
YELLOWSTONE NATIONAL PARK

CITY           SKY/WX    TMP DP  RH WIND       PRES   REMARKS
LK YELLOWSTONE   N/A     44  43  96 CALM      30.31R
W YELLOWSTONE  NOT AVBL

$$
WYZ002>013-054>058-071-098>099-291500-
NORTHERN WYOMING

CITY           SKY/WX    TMP DP  RH WIND       PRES   REMARKS
JACKSON        SUNNY     46  45  93 CALM      30.24R
CODY           PTSUNNY   54  52  94 NE7       30.15S
GREYBULL       MOSUNNY   61  54  77 W6        30.11R
WORLAND        MOSUNNY   59  53  80 CALM      30.10R
SHERIDAN       CLOUDY    59  55  87 N7        30.11R
BUFFALO        PTSUNNY   58  52  80 N14G24    30.13R
GILLETTE       CLOUDY    59  53  80 N13       30.06F
HULETT         LGT RAIN  59  54  82 MISG      30.07
NEWCASTLE      FAIR      63  46  55 NW10      30.04

$$
WYZ014>020-022>026-101>103-291500-
CENTRAL WYOMING

CITY           SKY/WX    TMP DP  RH WIND       PRES   REMARKS
BIG PINEY      SUNNY     46  41  82 W3        30.26R
PINEDALE       SUNNY     45  41  87 NW5       30.27R
DUBOIS         FAIR      46  37  71 NW10      30.24R
LANDER         SUNNY     59  46  62 SW7       30.17S
RIVERTON       SUNNY     60  46  59 NW3       30.18R
CASPER         PTSUNNY   62  48  60 VRB3      30.15R
DOUGLAS        MOSUNNY   62  50  64 NW8       30.14R

$$
WYZ021-027>030-104>119-291500-
SOUTHERN WYOMING

CITY           SKY/WX    TMP DP  RH WIND       PRES   REMARKS
EVANSTON       MOSUNNY   53  39  59 S8        30.28R
KEMMERER       SUNNY     50  43  76 CALM      30.28S
FORT BRIDGER   FAIR      60  36  39 W8        30.30R
ROCK SPRINGS   MOSUNNY   55  42  61 SW5       30.25R
DIXON          FAIR      51  47  87 SE8       30.28S
RAWLINS        MOSUNNY   57  45  64 W13       30.24R
SARATOGA       FAIR      54  46  76 S5        30.27R
LARAMIE        MOSUNNY   47  43  86 SE5       30.24R
CHEYENNE       SUNNY     61  45  55 W9        30.13R
TORRINGTON     MOSUNNY   54  51  90 MISG      30.03R
PINE BLUFFS    FAIR      55  46  71 SW5       30.08S

$$


USA.gov is the U.S. government's official web portal to all federal, state and local government web resources and services.